SCP
0 0 0 0 0 0 -0 -0 -0 -0 0 -0 0 0 0 0 0 0 0 0 0 0 0 0 1 0 0 0 0 0 0 0
0 0 0 0 0 0 0 0 0 1 0 0 0 0 0 0 -0 0 1 1 0 0 0 0 1 0 0 0 0 0 0 0
0 0 0 0 0 0 -0 0 0 0 2 1 0 0 0 0 -0 0 -0 -0 0 0 -0 0 0 0 0 0 0 0 0 0
0 0 0 0 -0 -0 -0 0 -0 -0 0 0 0 0 -0 -0 -0 -0 0 -0 0 0 0 0 -0 0 1 0 0 0 0 0
0 0 0 -0 -0 0 0 0 -0 0 0 0 0 0 0 -0 -0 0 0 -0 0 0 0 0 0 0 0 0 0 0 0 0
0 0 0 0 0 0 0 0 0 0 0 0 0 0 -0 -0 -0 -0 0 0 -0 0 0 0 0 0 0 0 0 0 0 0
0 0 0 0 0 0 0 0 0 0 0 0 0 0 0 -0 0 0 -0 -0 0 1 0 0 0 0 0 0 0 0 0 0
0 0 0 0 0 0 0 0 0 0 0 0 0 0 0 0 0 0 0 0 0 0 0 0 0 0 0 0 0 0 1 0
0 0 0 0 0 0 0 0 0 0 0 0 0 0 0 0 0 0 0 0 0 0 0 0 0 0 0 0 0 0 0 0
0 0 0 0 0 0 0 0 0 0 0 0 0 0 0 0 0 0 0 0 0 0 0 0 0 0 0 0 0 0 0 0
0 0 0 0 0 0 0 0 0 0 0 0 0 0 0 0 0 0 0 0 0 0 0 0 0 0 0 0 0 0 0 0
0 0 0 0 0 0 0 0 0 0 0 0 0 0 0 0 0 0 0 0 0 0 0 0 0 0 0 0 0 0 0 0
0 0 0 0 0 0 0 0 0 0 -0 -0 -0 0 0 0 0 0 0 0 0 0 0 0 0 0 0 0 0 0 0 0
0 0 0 0 0 0 0 0 0 0 -0 -0 -0 -0 -0 -0 -0 0 0 0 0 0 0 0 0 0 0 0 0 0 0 0
0 0 0 0 0 0 0 0 0 -0 -0 -0 -0 -0 -0 -0 0 0 0 0 0 0 0 0 0 0 0 0 0 0 0 0
0 0 0 0 0 0 0 -0 0 0 -0 -0 -0 0 0 0 0 0 0 0 0 0 0 0 0 0 0 0 0 0 0 0
0 0 0 0 0 0 0 0 0 0 0 0 0 0 0 0 0 0 0 0 0 0 0 0 0 0 0 0 0 0 0 0
0 0 0 0 0 0 0 0 0 0 0 0 0 0 0 0 0 0 0 0 0 0 0 0 0 0 0 0 0 0 0 0
0 0 0 0 0 0 0 0 0 0 0 0 0 0 0 0 0 0 0 0 0 0 0 0 0 0 0 0 0 0 0 0
0 0 0 0 0 0 0 0 0 0 0 0 0 0 0 0 0 0 0 0 -0 0 -0 -0 -0 -0 0 0 0 0 0 0
Wind_Speed_500mb
30 39 28 35 12 32 20 15 16 15 21 25 17 13 31 21 23 15 10 11 17 19 20 18 15 8 9 3 5 12 17 21
15 24 35 15 32 19 12 17 35 12 17 18 20 10 19 38 56 48 39 21 21 21 22 14 8 4 8 5 10 14 19 16
21 12 25 35 28 34 26 25 27 18 19 18 28 27 29 21 25 18 57 43 19 17 19 15 17 16 14 13 20 23 25 21
33 24 24 27 27 31 26 17 17 17 25 34 35 30 28 48 56 50 39 48 26 12 20 20 13 26 24 21 21 20 17 18
32 19 23 27 22 24 24 27 20 29 32 44 39 32 41 49 34 29 20 61 57 30 18 30 25 26 26 24 25 18 19 23
21 15 14 14 32 41 30 24 24 24 27 29 25 35 39 35 31 34 14 13 11 14 29 29 32 28 27 30 29 23 25 28
25 15 7 6 11 21 23 24 27 25 18 5 6 13 27 29 16 25 19 7 10 15 21 22 25 24 25 16 16 20 19 24
32 28 17 12 8 9 12 5 6 8 5 6 8 12 15 17 18 12 16 10 14 18 25 28 26 22 16 17 18 22 28 32
34 31 30 30 29 29 30 22 21 14 16 8 13 16 12 8 3 9 12 20 22 19 24 28 25 25 28 26 29 34 35 32
28 28 30 34 33 31 30 32 30 26 22 17 13 6 11 10 13 22 21 23 23 24 29 32 31 30 32 33 34 39 38 29
33 34 35 32 33 33 32 32 30 27 23 16 9 8 15 23 26 31 38 36 26 28 35 33 32 34 32 34 37 40 39 42
25 28 28 30 33 32 33 34 37 37 36 34 33 35 39 40 42 44 44 40 37 41 40 43 41 38 40 41 41 40 45 45
25 22 22 22 24 32 34 38 38 39 40 40 39 40 40 43 47 51 51 49 47 49 50 53 57 54 48 48 51 49 47 50
24 23 10 14 18 21 34 41 41 42 45 46 47 48 50 50 55 59 61 58 55 53 54 53 57 59 57 54 52 51 50 51
16 13 20 19 19 24 33 38 42 44 49 53 54 56 58 54 53 51 50 53 49 48 45 44 42 42 37 36 40 44 46 40
14 7 13 15 21 28 35 40 39 43 48 51 54 52 50 48 46 43 43 41 46 48 44 42 39 43 39 40 36 32 32 33
10 21 13 13 15 26 34 36 38 43 50 46 44 46 46 41 39 38 39 38 37 40 38 40 36 42 42 35 29 29 29 30
11 25 18 14 11 18 32 36 32 39 38 38 36 36 38 39 36 35 33 34 36 35 34 37 36 30 34 37 34 31 31 34
32 24 15 11 16 31 36 33 34 35 38 37 27 27 32 33 32 33 36 33 30 32 29 31 26 28 28 31 29 27 27 28
20 18 11 15 28 39 33 31 31 38 37 34 28 28 31 32 27 28 29 29 26 28 28 25 23 23 26 32 28 30 31 29
Wind_Direction_500mb
104 113 118 75 170 96 34 47 46 18 344 334 325 288 322 329 338 296 256 270 286 295 301 316 311 293 288 10 297 294 307 285
119 171 170 206 182 202 205 279 300 252 321 296 298 298 230 272 292 285 270 259 256 244 266 271 249 327 275 308 309 315 281 305
86 160 186 191 252 246 266 307 316 265 282 260 257 265 272 329 8 277 257 238 248 256 276 305 299 285 295 301 310 296 285 288
112 125 166 200 216 235 263 253 280 267 260 261 271 276 307 334 325 342 292 311 14 6 317 318 295 286 293 289 317 309 307 302
101 119 166 191 191 214 200 259 243 251 252 265 277 295 303 325 352 316 265 344 13 26 351 322 297 290 283 293 313 301 306 316
90 105 132 143 196 200 220 224 227 233 247 264 276 329 338 348 41 65 64 5 334 298 276 267 262 271 284 297 300 289 283 299
57 60 67 91 144 187 196 186 201 217 236 54 66 18 21 28 48 35 48 19 285 270 286 282 289 297 324 293 306 297 283 305
60 54 64 59 84 107 115 156 193 180 170 121 57 28 21 26 38 10 337 327 304 300 301 291 295 298 304 285 289 285 292 301
68 52 62 72 71 66 71 80 67 86 143 137 96 57 34 46 338 275 338 2 358 328 305 306 309 300 301 299 291 287 280 293
70 52 49 57 56 59 61 57 60 61 57 48 47 35 5 10 338 330 331 331 330 324 313 314 313 303 295 293 293 291 285 282
67 55 42 42 44 36 40 41 36 35 31 26 19 311 305 312 321 319 325 325 320 306 303 300 295 289 290 295 293 291 302 290
83 68 55 36 27 20 18 24 22 16 7 1 353 347 343 340 326 320 314 311 311 297 292 298 301 302 295 292 291 294 296 301
91 75 71 47 17 0 2 5 8 5 358 353 348 342 335 325 316 313 311 310 308 303 300 298 298 299 295 294 295 297 297 298
103 79 61 40 22 1 352 356 1 354 349 348 346 345 342 336 330 329 328 327 322 315 315 313 309 309 306 301 295 296 301 294
101 113 56 55 24 359 348 351 354 345 340 339 340 338 339 341 345 347 349 354 358 358 1 2 359 356 347 339 327 302 297 302
124 98 82 57 24 360 348 352 351 342 341 341 341 348 354 355 0 7 11 12 13 15 8 10 13 1 355 353 344 338 324 319
139 126 107 71 16 0 354 352 345 336 337 347 2 9 11 10 6 5 3 5 9 5 8 6 6 359 7 0 4 358 348 334
158 119 96 74 38 351 340 347 349 350 8 3 3 6 8 11 9 10 11 6 7 4 10 6 8 7 16 23 25 23 37 35
118 108 90 49 353 346 345 353 1 1 354 345 358 8 2 357 7 5 6 6 2 3 359 358 5 8 13 21 22 20 26 20
101 98 67 14 350 345 0 14 2 346 353 6 26 8 7 358 358 6 10 12 4 350 346 339 342 3 8 8 6 15 20 18
Wind_Speed_850mb
30 39 28 35 12 32 20 15 16 15 21 25 17 13 31 21 23 15 10 11 17 19 20 18 15 8 9 3 5 12 17 21
15 24 35 15 32 19 12 17 35 12 17 18 20 10 19 38 56 48 39 21 21 21 22 14 8 4 8 5 10 14 19 16
21 12 25 35 28 34 26 25 27 18 19 18 28 27 29 21 25 18 57 43 19 17 19 15 17 16 14 13 20 23 25 21
33 24 24 27 27 31 26 17 17 17 25 34 35 30 28 48 56 50 39 48 26 12 20 20 13 26 24 21 21 20 17 18
32 19 23 27 22 24 24 27 20 29 32 44 39 32 41 49 34 29 20 61 57 30 18 30 25 26 26 24 25 18 19 23
21 15 14 14 32 41 30 24 24 24 27 29 25 35 39 35 31 34 14 13 11 14 29 29 32 28 27 30 29 23 25 28
25 15 7 6 11 21 23 24 27 25 18 5 6 13 27 29 16 25 19 7 10 15 21 22 25 24 25 16 16 20 19 24
32 28 17 12 8 9 12 5 6 8 5 6 8 12 15 17 18 12 16 10 14 18 25 28 26 22 16 17 18 22 28 32
34 31 30 30 29 29 30 22 21 14 16 8 13 16 12 8 3 9 12 20 22 19 24 28 25 25 28 26 29 34 35 32
28 28 30 34 33 31 30 32 30 26 22 17 13 6 11 10 13 22 21 23 23 24 29 32 31 30 32 33 34 39 38 29
33 34 35 32 33 33 32 32 30 27 23 16 9 8 15 23 26 31 38 36 26 28 35 33 32 34 32 34 37 40 39 42
25 28 28 30 33 32 33 34 37 37 36 34 33 35 39 40 42 44 44 40 37 41 40 43 41 38 40 41 41 40 45 45
25 22 22 22 24 32 34 38 38 39 40 40 39 40 40 43 47 51 51 49 47 49 50 53 57 54 48 48 51 49 47 50
24 23 10 14 18 21 34 41 41 42 45 46 47 48 50 50 55 59 61 58 55 53 54 53 57 59 57 54 52 51 50 51
16 13 20 19 19 24 33 38 42 44 49 53 54 56 58 54 53 51 50 53 49 48 45 44 42 42 37 36 40 44 46 40
14 7 13 15 21 28 35 40 39 43 48 51 54 52 50 48 46 43 43 41 46 48 44 42 39 43 39 40 36 32 32 33
10 21 13 13 15 26 34 36 38 43 50 46 44 46 46 41 39 38 39 38 37 40 38 40 36 42 42 35 29 29 29 30
11 25 18 14 11 18 32 36 32 39 38 38 36 36 38 39 36 35 33 34 36 35 34 37 36 30 34 37 34 31 31 34
32 24 15 11 16 31 36 33 34 35 38 37 27 27 32 33 32 33 36 33 30 32 29 31 26 28 28 31 29 27 27 28
20 18 11 15 28 39 33 31 31 38 37 34 28 28 31 32 27 28 29 29 26 28 28 25 23 23 26 32 28 30 31 29
Wind_Direction_850mb
104 113 118 75 170 96 34 47 46 18 344 334 325 288 322 329 338 296 256 270 286 295 301 316 311 293 288 10 297 294 307 285
119 171 170 206 182 202 205 279 300 252 321 296 298 298 230 272 292 285 270 259 256 244 266 271 249 327 275 308 309 315 281 305
86 160 186 191 252 246 266 307 316 265 282 260 257 265 272 329 8 277 257 238 248 256 276 305 299 285 295 301 310 296 285 288
112 125 166 200 216 235 263 253 280 267 260 261 271 276 307 334 325 342 292 311 14 6 317 318 295 286 293 289 317 309 307 302
101 119 166 191 191 214 200 259 243 251 252 265 277 295 303 325 352 316 265 344 13 26 351 322 297 290 283 293 313 301 306 316
90 105 132 143 196 200 220 224 227 233 247 264 276 329 338 348 41 65 64 5 334 298 276 267 262 271 284 297 300 289 283 299
57 60 67 91 144 187 196 186 201 217 236 54 66 18 21 28 48 35 48 19 285 270 286 282 289 297 324 293 306 297 283 305
60 54 64 59 84 107 115 156 193 180 170 121 57 28 21 26 38 10 337 327 304 300 301 291 295 298 304 285 289 285 292 301
68 52 62 72 71 66 71 80 67 86 143 137 96 57 34 46 338 275 338 2 358 328 305 306 309 300 301 299 291 287 280 293
70 52 49 57 56 59 61 57 60 61 57 48 47 35 5 10 338 330 331 331 330 324 313 314 313 303 295 293 293 291 285 282
67 55 42 42 44 36 40 41 36 35 31 26 19 311 305 312 321 319 325 325 320 306 303 300 295 289 290 295 293 291 302 290
83 68 55 36 27 20 18 24 22 16 7 1 353 347 343 340 326 320 314 311 311 297 292 298 301 302 295 292 291 294 296 301
91 75 71 47 17 0 2 5 8 5 358 353 348 342 335 325 316 313 311 310 308 303 300 298 298 299 295 294 295 297 297 298
103 79 61 40 22 1 352 356 1 354 349 348 346 345 342 336 330 329 328 327 322 315 315 313 309 309 306 301 295 296 301 294
101 113 56 55 24 359 348 351 354 345 340 339 340 338 339 341 345 347 349 354 358 358 1 2 359 356 347 339 327 302 297 302
124 98 82 57 24 360 348 352 351 342 341 341 341 348 354 355 0 7 11 12 13 15 8 10 13 1 355 353 344 338 324 319
139 126 107 71 16 0 354 352 345 336 337 347 2 9 11 10 6 5 3 5 9 5 8 6 6 359 7 0 4 358 348 334
158 119 96 74 38 351 340 347 349 350 8 3 3 6 8 11 9 10 11 6 7 4 10 6 8 7 16 23 25 23 37 35
118 108 90 49 353 346 345 353 1 1 354 345 358 8 2 357 7 5 6 6 2 3 359 358 5 8 13 21 22 20 26 20
101 98 67 14 350 345 0 14 2 346 353 6 26 8 7 358 358 6 10 12 4 350 346 339 342 3 8 8 6 15 20 18